Date,TemperatureHighF,TemperatureAvgF,TemperatureLowF,DewpointHighF,DewpointAvgF,DewpointLowF,HumidityHigh,HumidityAvg,HumidityLow,PressureMaxIn,PressureMinIn,WindSpeedMaxMPH,WindSpeedAvgMPH,GustSpeedMaxMPH,PrecipitationSumIn
2013-2-1,58.0,46.6,33.0,33.0,27.0,18.0,64,47,26,30.32,30.14,23,4,27,0.00
2013-2-2,58.0,42.2,28.0,44.0,32.8,16.0,100,70,50,30.38,30.10,6,0,6,0.00
2013-2-3,60.0,50.4,41.0,43.0,34.9,31.0,91,57,36,30.10,29.96,23,4,26,0.00
2013-2-4,58.0,44.7,31.0,41.0,34.6,29.0,100,71,35,30.18,30.01,4,0,5,0.00
2013-2-5,68.0,50.7,36.0,52.0,44.7,36.0,100,83,40,30.12,29.97,17,1,17,0.00
2013-2-6,72.0,55.7,45.0,57.0,50.0,45.0,100,84,41,30.23,30.03,7,0,8,0.00
2013-2-7,59.0,52.9,45.0,58.0,52.7,45.0,100,99,92,30.17,29.72,12,0,14,1.01
2013-2-8,65.0,55.1,48.0,56.0,50.4,47.5,100,85,60,30.07,29.72,21,3,21,0.08
2013-2-9,63.0,48.1,37.0,51.0,36.2,24.0,100,69,25,30.34,30.06,12,0,12,0.00
2013-2-10,64.0,50.7,33.0,58.0,46.3,33.0,100,86,59,30.45,30.22,7,0,9,0.00
2013-2-11,65.0,61.6,59.0,65.0,61.1,57.5,100,99,89,30.28,30.09,15,1,16,1.46
2013-2-12,62.0,56.1,50.0,60.0,55.4,50.0,100,98,80,30.16,29.89,16,0,19,2.71
2013-2-13,73.0,58.3,48.0,69.0,54.2,47.0,100,88,50,29.91,29.76,26,3,28,0.30
2013-2-14,56.0,48.6,42.0,50.5,43.0,38.0,100,83,57,30.08,29.86,12,0,13,0.00
2013-2-15,62.0,47.0,36.0,57.0,41.6,36.0,100,85,46,30.16,29.95,5,0,6,0.00
2013-2-16,57.0,42.4,35.0,49.0,40.0,31.0,100,92,64,30.00,29.82,23,2,23,0.06
2013-2-17,48.0,35.9,27.0,32.0,21.0,8.0,100,59,24,30.27,29.99,25,2,25,0.00
2013-2-18,56.0,39.3,25.0,35.0,28.5,21.0,100,71,26,30.47,30.23,6,0,7,0.00
2013-2-19,66.0,50.6,34.0,57.5,48.6,35.0,100,94,55,30.24,30.01,20,2,20,0.21
2013-2-20,59.0,47.6,34.0,50.0,36.4,26.0,100,69,32,30.20,30.04,10,0,10,0.00
2013-2-21,63.0,46.9,34.0,49.0,41.4,35.0,100,84,46,30.24,30.07,6,0,6,0.00
2013-2-22,62.0,53.8,48.0,62.0,51.9,44.0,100,94,75,30.21,30.06,15,1,15,0.55
2013-2-23,61.0,50.9,45.0,61.0,50.9,45.0,100,100,100,30.06,29.80,12,0,12,2.37
2013-2-24,69.0,54.5,46.0,55.0,50.5,40.0,100,89,42,30.03,29.78,12,1,13,0.01
2013-2-25,50.0,46.1,42.0,49.0,45.8,41.0,100,99,91,30.09,29.94,12,1,12,0.21
2013-2-26,71.0,61.5,48.0,68.0,59.5,48.0,100,94,67,29.95,29.65,18,2,18,0.77
2013-2-27,62.0,53.3,48.0,56.0,43.7,38.0,98,71,52,29.92,29.74,20,4,20,0.00
2013-2-28,60.0,52.4,47.0,43.0,37.5,31.0,83,59,36,29.90,29.82,24,6,27,0.00